Miscellaneous Local Product
Issued by NWS North Platte, NE

Home | Current Version | Previous Version | Text Only | Print | Product List | Glossary On
Versions: 1 2 3 4 5 6 7 8 9 10 11 12 13 14 15 16 17 18 19 20 21 22 23 24 25 26 27 28 29 30 31 32 33 34 35 36 37 38 39 40 41 42 43 44 45 46 47 48 49 50
928
AXUS43 KLBF 282110
MISLBF


WESTERN AND NORTH CENTRAL NEBRASKA HOURLY WEATHER ROUNDUP
NATIONAL WEATHER SERVICE NORTH PLATTE NE
400 PM CDT SUN MAY 28 2017

NOTE: "FAIR" INDICATES FEW OR NO CLOUDS BELOW 12,000 FEET WITH NO
SIGNIFICANT WEATHER AND/OR OBSTRUCTIONS TO VISIBILITY.

NOTE: STATIONS NOT REPORTING VARIABLES SUCH AS SKY/WEATHER OR
PRESSURE ARE PROVIDED BY RAWS AND APRS NETWORKS AND ARE NOT UNDER
NATIONAL WEATHER SERVICE QUALITY CONTROL.

...OBSERVATIONS IN AND NEAR THE EASTERN PANHANDLE OF NEBRASKA...

CITY           SKY/WX    TMP DP  RH WIND       PRES   REMARKS
PINE RIDGE     LGT RAIN  59  51  75 SW9       30.11R
GORDON         CLOUDY    63  44  51 W8        30.09R
CHADRON        CLOUDY    63  47  55 N20G30    30.10R
ALLIANCE       MOSUNNY   72  43  35 NW12G23   30.09F
SIDNEY         MOSUNNY   69  41  36 N20G29    30.16F
CRESCENT LAKE    N/A     72  40  31 N10G25      N/A
$$

...OBSERVATIONS IN NORTHERN NEBRASKA AND FAR SOUTHERN SOUTH DAKOTA...

CITY           SKY/WX    TMP DP  RH WIND       PRES   REMARKS
WINNER         PTSUNNY   76  39  26 NW12G28   29.96F
VALENTINE      SUNNY     76  33  21 NW17      30.02F
THEDFORD       PTSUNNY   74  42  31 NW12G20   30.05F
AINSWORTH      SUNNY     72  37  27 NW17G24   30.03S
O`NEILL        MOSUNNY   75  35  23 NW16G22   29.98F
ORD            SUNNY     75  36  24 NW18G26   29.99S
BROKEN BOW     MOSUNNY   78  38  23 N21G26    30.02S
VALENTINE NWR    N/A     73  31  21 N13G24      N/A
HALSEY           N/A     75  38  26 NW9G18      N/A
BUTTE            N/A     73  37  26 NW21G31     N/A
CHAMBERS         N/A     75  44  33 N3          N/A
EWING            N/A     76  41  28 NW12G20     N/A
$$

...OBSERVATIONS IN SOUTHWEST NEBRASKA AND FAR NORTHEAST COLORADO...

CITY           SKY/WX    TMP DP  RH WIND       PRES   REMARKS
WRAY           FAIR      79  32  18 NW9G29    30.14S
IMPERIAL       PTSUNNY   74  35  24 NW13      30.10S
OGALLALA       CLOUDY    75  43  31 NW14G22   30.10F
NORTH PLATTE   CLOUDY    76  49  38 N12G18    30.05F
MCCOOK         MOSUNNY   82  40  22 NW14G26   30.05F
LEXINGTON      MOSUNNY   76  43  30 N16G26    30.04S
STAPLETON        N/A     70  49  47 CALM        N/A
GOTHENBURG       N/A     75  39  27 NW12        N/A
CALLAWAY         N/A     68  49  50 NW6         N/A
$$

...OBSERVATIONS IN CENTRAL LINCOLN COUNTY AREA...

CITY           SKY/WX    TMP DP  RH WIND       PRES   REMARKS
N.P. AIRPORT   CLOUDY    76  49  38 N12G18    30.05F
N.P. DOWNTOWN    N/A     76  44  31 W6          N/A
N.P. SOUTHEAST   N/A     76  43  31 N9G20       N/A
N.P. HILLCREST   N/A     75  43  31 NW17G26     N/A
$$

...SOME OBSERVATIONS FROM AROUND THE REGION...

CITY           SKY/WX    TMP DP  RH WIND       PRES   REMARKS
DENVER         MOSUNNY   69  34  27 NW5       30.23F
LIMON          MOSUNNY   67  35  30 NW8       30.25F
ASPEN          SUNNY     63  22  20 NW10      30.30F
LARAMIE        MOSUNNY   63  27  25 NW16G26   30.29F
CASPER         MOSUNNY   64  42  44 NE14      30.24R
CHEYENNE       CLOUDY    62  32  32 N21G33    30.25S
SCOTTSBLUFF    MOSUNNY   76  40  27 W12G22    30.12F
GRAND ISLAND   MOSUNNY   80  43  26 N23G32    29.98S
OMAHA          MOSUNNY   82  44  26 NW21G33   29.87R
SIOUX FALLS    PTSUNNY   73  43  33 NW22G31   29.87S
PIERRE         MOSUNNY   79  35  20 NW15G25   29.90F
RAPID CITY     SUNNY     76  38  25 NW16G25   30.02F
BISMARCK       MOSUNNY   73  39  29 NW22G35   29.85F
KANSAS CITY    MOSUNNY   78  51  38 NW9G22    29.94S
HILL CITY      MOSUNNY   81  43  26 NW9       30.06F
WICHITA        MOSUNNY   81  45  28 NW14      30.02F
DODGE CITY     SUNNY     79  39  23 NW14      30.09F
OKLAHOMA CITY  MOSUNNY   81  52  36 N14G21    30.03F
DALLAS         CLOUDY    75  69  81 N12G22    29.97F
AMARILLO       SUNNY     76  37  24 N16       30.18F
$$




USA.gov is the U.S. government's official web portal to all federal, state and local government web resources and services.